Year,Month,Day,Hour,Minute,Value (Times are PST for temperature in C)
2018,12,10,00,00,7.00
2018,12,10,00,01,7.00
2018,12,10,00,02,7.00
2018,12,10,00,03,7.10
2018,12,10,00,04,7.10
2018,12,10,00,05,7.10
2018,12,10,00,06,7.10
2018,12,10,00,07,7.10
2018,12,10,00,08,7.00
2018,12,10,00,09,7.00
2018,12,10,00,10,7.00
2018,12,10,00,11,7.00
2018,12,10,00,12,7.00
2018,12,10,00,13,7.00
2018,12,10,00,14,7.00
2018,12,10,00,15,7.00
2018,12,10,00,16,7.00
2018,12,10,00,17,7.00
2018,12,10,00,18,7.00
2018,12,10,00,19,7.00
2018,12,10,00,20,7.00
2018,12,10,00,21,7.00
2018,12,10,00,22,7.00
2018,12,10,00,23,7.00
2018,12,10,00,24,7.00
2018,12,10,00,25,7.10
2018,12,10,00,26,7.10
2018,12,10,00,27,7.10
2018,12,10,00,28,7.10
2018,12,10,00,29,7.10
2018,12,10,00,30,7.10
2018,12,10,00,31,7.10
2018,12,10,00,32,7.10
2018,12,10,00,33,7.10
2018,12,10,00,34,7.10
2018,12,10,00,35,7.10
2018,12,10,00,36,7.10
2018,12,10,00,37,7.10
2018,12,10,00,38,7.10
2018,12,10,00,39,7.10
2018,12,10,00,40,7.10
2018,12,10,00,41,7.10
2018,12,10,00,42,7.10
2018,12,10,00,43,7.10
2018,12,10,00,44,7.10
2018,12,10,00,45,7.10
2018,12,10,00,46,7.10
2018,12,10,00,47,7.10
2018,12,10,00,48,7.10
2018,12,10,00,49,7.20
2018,12,10,00,50,7.20
2018,12,10,00,51,7.20
2018,12,10,00,52,7.20
2018,12,10,00,53,7.20
2018,12,10,00,54,7.20
2018,12,10,00,55,7.20
2018,12,10,00,56,7.20
2018,12,10,00,57,7.20
2018,12,10,00,58,7.20
2018,12,10,00,59,7.20
2018,12,10,01,00,7.20
2018,12,10,01,01,7.30
2018,12,10,01,02,7.30
2018,12,10,01,03,7.30
2018,12,10,01,04,7.30
2018,12,10,01,05,7.30
2018,12,10,01,06,7.30
2018,12,10,01,07,7.30
2018,12,10,01,08,7.30
2018,12,10,01,09,7.30
2018,12,10,01,10,7.30
2018,12,10,01,11,7.30
2018,12,10,01,12,7.30
2018,12,10,01,13,7.30
2018,12,10,01,14,7.30
2018,12,10,01,15,7.30
2018,12,10,01,16,7.30
2018,12,10,01,17,7.30
2018,12,10,01,18,7.30
2018,12,10,01,19,7.30
2018,12,10,01,20,7.30
2018,12,10,01,21,7.30
2018,12,10,01,22,7.30
2018,12,10,01,23,7.30
2018,12,10,01,24,7.30
2018,12,10,01,25,7.30
2018,12,10,01,26,7.30
2018,12,10,01,27,7.30
2018,12,10,01,28,7.30
2018,12,10,01,29,7.30
2018,12,10,01,30,7.30
2018,12,10,01,31,7.30
2018,12,10,01,32,7.30
2018,12,10,01,33,7.30
2018,12,10,01,34,7.30
2018,12,10,01,35,7.30
2018,12,10,01,36,7.30
2018,12,10,01,37,7.30
2018,12,10,01,38,7.30
2018,12,10,01,39,7.30
2018,12,10,01,40,7.30
2018,12,10,01,41,7.20
2018,12,10,01,42,7.20
2018,12,10,01,43,7.20
2018,12,10,01,44,7.20
2018,12,10,01,45,7.20
2018,12,10,01,46,7.20
2018,12,10,01,47,7.20
2018,12,10,01,48,7.20
2018,12,10,01,49,7.20
2018,12,10,01,50,7.20
2018,12,10,01,51,7.20
2018,12,10,01,52,7.20
2018,12,10,01,53,7.20
2018,12,10,01,54,7.20
2018,12,10,01,55,7.20
2018,12,10,01,56,7.20
2018,12,10,01,57,7.30
2018,12,10,01,58,7.30
2018,12,10,01,59,7.30
2018,12,10,02,00,7.30
2018,12,10,02,01,7.30
2018,12,10,02,02,7.30
2018,12,10,02,03,7.30
2018,12,10,02,04,7.30
2018,12,10,02,05,7.20
2018,12,10,02,06,7.20
2018,12,10,02,07,7.20
2018,12,10,02,08,7.20
2018,12,10,02,09,7.20
2018,12,10,02,10,7.20
2018,12,10,02,11,7.20
2018,12,10,02,12,7.20
2018,12,10,02,13,7.20
2018,12,10,02,14,7.30
2018,12,10,02,15,7.30
2018,12,10,02,16,7.20
2018,12,10,02,17,7.20
2018,12,10,02,18,7.20
2018,12,10,02,19,7.20
2018,12,10,02,20,7.20
2018,12,10,02,21,7.20
2018,12,10,02,22,7.20
2018,12,10,02,23,7.20
2018,12,10,02,24,7.20
2018,12,10,02,25,7.20
2018,12,10,02,26,7.20
2018,12,10,02,27,7.20
2018,12,10,02,28,7.20
2018,12,10,02,29,7.20
2018,12,10,02,30,7.20
2018,12,10,02,31,7.20
2018,12,10,02,32,7.20
2018,12,10,02,33,7.20
2018,12,10,02,34,7.10
2018,12,10,02,35,7.10
2018,12,10,02,36,7.10
2018,12,10,02,37,7.10
2018,12,10,02,38,7.10
2018,12,10,02,39,7.10
2018,12,10,02,40,7.10
2018,12,10,02,41,7.20
2018,12,10,02,42,7.20
2018,12,10,02,43,7.20
2018,12,10,02,44,7.20
2018,12,10,02,45,7.20
2018,12,10,02,46,7.20
2018,12,10,02,47,7.20
2018,12,10,02,48,7.20
2018,12,10,02,49,7.20
2018,12,10,02,50,7.20
2018,12,10,02,51,7.20
2018,12,10,02,52,7.20
2018,12,10,02,53,7.20
2018,12,10,02,54,7.20
2018,12,10,02,55,7.20
2018,12,10,02,56,7.20
2018,12,10,02,57,7.20
2018,12,10,02,58,7.20
2018,12,10,02,59,7.20
2018,12,10,03,00,7.20
2018,12,10,03,01,7.20
2018,12,10,03,02,7.20
2018,12,10,03,03,7.20
2018,12,10,03,04,7.10
2018,12,10,03,05,7.10
2018,12,10,03,06,7.10
2018,12,10,03,07,7.10
2018,12,10,03,08,7.10
2018,12,10,03,09,7.10
2018,12,10,03,10,7.10
2018,12,10,03,11,7.10
2018,12,10,03,12,7.10
2018,12,10,03,13,7.10
2018,12,10,03,14,7.10
2018,12,10,03,15,7.10
2018,12,10,03,16,7.10
2018,12,10,03,17,7.10
2018,12,10,03,18,7.10
2018,12,10,03,19,7.10
2018,12,10,03,20,7.10
2018,12,10,03,21,7.10
2018,12,10,03,22,7.10
2018,12,10,03,23,7.00
2018,12,10,03,24,7.00
2018,12,10,03,25,7.00
2018,12,10,03,26,7.00
2018,12,10,03,27,7.00
2018,12,10,03,28,6.90
2018,12,10,03,29,6.90
2018,12,10,03,30,6.90
2018,12,10,03,31,6.90
2018,12,10,03,32,6.90
2018,12,10,03,33,6.90
2018,12,10,03,34,6.90
2018,12,10,03,35,6.90
2018,12,10,03,36,6.90
2018,12,10,03,37,6.80
2018,12,10,03,38,6.80
2018,12,10,03,39,6.80
2018,12,10,03,40,6.80
2018,12,10,03,41,6.80
2018,12,10,03,42,6.80
2018,12,10,03,43,6.70
2018,12,10,03,44,6.70
2018,12,10,03,45,6.70
2018,12,10,03,46,6.70
2018,12,10,03,47,6.70
2018,12,10,03,48,6.70
2018,12,10,03,49,6.70
2018,12,10,03,50,6.70
2018,12,10,03,51,6.60
2018,12,10,03,52,6.60
2018,12,10,03,53,6.60
2018,12,10,03,54,6.60
2018,12,10,03,55,6.60
2018,12,10,03,56,6.60
2018,12,10,03,57,6.60
2018,12,10,03,58,6.60
2018,12,10,03,59,6.60
2018,12,10,04,00,6.60
2018,12,10,04,01,6.50
2018,12,10,04,02,6.50
2018,12,10,04,03,6.50
2018,12,10,04,04,6.40
2018,12,10,04,05,6.40
2018,12,10,04,06,6.40
2018,12,10,04,07,6.30
2018,12,10,04,08,6.30
2018,12,10,04,09,6.30
2018,12,10,04,10,6.20
2018,12,10,04,11,6.20
2018,12,10,04,12,6.20
2018,12,10,04,13,6.10
2018,12,10,04,14,6.10
2018,12,10,04,15,6.10
2018,12,10,04,16,6.00
2018,12,10,04,17,6.00
2018,12,10,04,18,5.90
2018,12,10,04,19,5.90
2018,12,10,04,20,5.80
2018,12,10,04,21,5.80
2018,12,10,04,22,5.80
2018,12,10,04,23,5.80
2018,12,10,04,24,5.70
2018,12,10,04,25,5.70
2018,12,10,04,26,5.70
2018,12,10,04,27,5.60
2018,12,10,04,28,5.60
2018,12,10,04,29,5.60
2018,12,10,04,30,5.50
2018,12,10,04,31,5.50
2018,12,10,04,32,5.50
2018,12,10,04,33,5.40
2018,12,10,04,34,5.40
2018,12,10,04,35,5.40
2018,12,10,04,36,5.40
2018,12,10,04,37,5.30
2018,12,10,04,38,5.30
2018,12,10,04,39,5.30
2018,12,10,04,40,5.30
2018,12,10,04,41,5.30
2018,12,10,04,42,5.30
2018,12,10,04,43,5.30
2018,12,10,04,44,5.20
2018,12,10,04,45,5.20
2018,12,10,04,46,5.20
2018,12,10,04,47,5.20
2018,12,10,04,48,5.10
2018,12,10,04,49,5.10
2018,12,10,04,50,5.10
2018,12,10,04,51,5.10
2018,12,10,04,52,5.10
2018,12,10,04,53,5.10
2018,12,10,04,54,5.10
2018,12,10,04,55,5.10
2018,12,10,04,56,5.10
2018,12,10,04,57,5.10
2018,12,10,04,58,5.00
2018,12,10,04,59,5.00
2018,12,10,05,00,5.00
2018,12,10,05,01,4.90
2018,12,10,05,02,4.90
2018,12,10,05,03,4.90
2018,12,10,05,04,4.90
2018,12,10,05,05,4.80
2018,12,10,05,06,4.80
2018,12,10,05,07,4.80
2018,12,10,05,08,4.80
2018,12,10,05,09,4.80
2018,12,10,05,10,4.80
2018,12,10,05,11,4.80
2018,12,10,05,12,4.70
2018,12,10,05,13,4.70
2018,12,10,05,14,4.70
2018,12,10,05,15,4.70
2018,12,10,05,16,4.70
2018,12,10,05,17,4.70
2018,12,10,05,18,4.60
2018,12,10,05,19,4.60
2018,12,10,05,20,4.60
2018,12,10,05,21,4.50
2018,12,10,05,22,4.50
2018,12,10,05,23,4.50
2018,12,10,05,24,4.40
2018,12,10,05,25,4.40
2018,12,10,05,26,4.40
2018,12,10,05,27,4.40
2018,12,10,05,28,4.40
2018,12,10,05,29,4.30
2018,12,10,05,30,4.30
2018,12,10,05,31,4.30
2018,12,10,05,32,4.30
2018,12,10,05,33,4.30
2018,12,10,05,34,4.30
2018,12,10,05,35,4.30
2018,12,10,05,36,4.30
2018,12,10,05,37,4.20
2018,12,10,05,38,4.20
2018,12,10,05,39,4.20
2018,12,10,05,40,4.20
2018,12,10,05,41,4.20
2018,12,10,05,42,4.20
2018,12,10,05,43,4.20
2018,12,10,05,44,4.10
2018,12,10,05,45,4.10
2018,12,10,05,46,4.10
2018,12,10,05,47,4.10
2018,12,10,05,48,4.10
2018,12,10,05,49,4.00
2018,12,10,05,50,4.00
2018,12,10,05,51,4.00
2018,12,10,05,52,4.00
2018,12,10,05,53,4.00
2018,12,10,05,54,4.00
2018,12,10,05,55,3.90
2018,12,10,05,56,3.90
2018,12,10,05,57,3.90
2018,12,10,05,58,3.90
2018,12,10,05,59,3.90
2018,12,10,06,00,3.90
2018,12,10,06,01,3.80
2018,12,10,06,02,3.80
2018,12,10,06,03,3.80
2018,12,10,06,04,3.80
2018,12,10,06,05,3.80
2018,12,10,06,06,3.80
2018,12,10,06,07,3.70
2018,12,10,06,08,3.70
2018,12,10,06,09,3.70
2018,12,10,06,10,3.70
2018,12,10,06,11,3.70
2018,12,10,06,12,3.70
2018,12,10,06,13,3.70
2018,12,10,06,14,3.70
2018,12,10,06,15,3.70
2018,12,10,06,16,3.70
2018,12,10,06,17,3.70
2018,12,10,06,18,3.70
2018,12,10,06,19,3.70
2018,12,10,06,20,3.70
2018,12,10,06,21,3.70
2018,12,10,06,22,3.70
2018,12,10,06,23,3.70
2018,12,10,06,24,3.70
2018,12,10,06,25,3.70
2018,12,10,06,26,3.70
2018,12,10,06,27,3.70
2018,12,10,06,28,3.70
2018,12,10,06,29,3.70
2018,12,10,06,30,3.70
2018,12,10,06,31,3.70
2018,12,10,06,32,3.70
2018,12,10,06,33,3.70
2018,12,10,06,34,3.70
2018,12,10,06,35,3.70
2018,12,10,06,36,3.70
2018,12,10,06,37,3.70
2018,12,10,06,38,3.70
2018,12,10,06,39,3.70
2018,12,10,06,40,3.70
2018,12,10,06,41,3.70
2018,12,10,06,42,3.70
2018,12,10,06,43,3.70
2018,12,10,06,44,3.70
2018,12,10,06,45,3.70
2018,12,10,06,46,3.70
2018,12,10,06,47,3.70
2018,12,10,06,48,3.70
2018,12,10,06,49,3.70
2018,12,10,06,50,3.70
2018,12,10,06,51,3.70
2018,12,10,06,52,3.70
2018,12,10,06,53,3.70
2018,12,10,06,54,3.70
2018,12,10,06,55,3.70
2018,12,10,06,56,3.70
2018,12,10,06,57,3.70
2018,12,10,06,58,3.70
2018,12,10,06,59,3.80
2018,12,10,07,00,3.80
2018,12,10,07,01,3.90
2018,12,10,07,02,3.90
2018,12,10,07,03,4.00
2018,12,10,07,04,4.10
2018,12,10,07,05,4.10
2018,12,10,07,06,4.20
2018,12,10,07,07,4.30
2018,12,10,07,08,4.40
2018,12,10,07,09,4.50
2018,12,10,07,10,4.60
2018,12,10,07,11,4.60
2018,12,10,07,12,4.70
2018,12,10,07,13,4.90
2018,12,10,07,14,4.90
2018,12,10,07,15,5.00
2018,12,10,07,16,5.10
2018,12,10,07,17,5.10
2018,12,10,07,18,5.10
2018,12,10,07,19,5.10
2018,12,10,07,20,5.10
2018,12,10,07,21,5.10
2018,12,10,07,22,5.20
2018,12,10,07,23,5.20
2018,12,10,07,24,5.30
2018,12,10,07,25,5.30
2018,12,10,07,26,5.30
2018,12,10,07,27,5.30
2018,12,10,07,28,5.30
2018,12,10,07,29,5.30
2018,12,10,07,30,5.30
2018,12,10,07,31,5.30
2018,12,10,07,32,5.30
2018,12,10,07,33,5.30
2018,12,10,07,34,5.30
2018,12,10,07,35,5.30
2018,12,10,07,36,5.30
2018,12,10,07,37,5.30
2018,12,10,07,38,5.30
2018,12,10,07,39,5.30
2018,12,10,07,40,5.30
2018,12,10,07,41,5.30
2018,12,10,07,42,5.30
2018,12,10,07,43,5.20
2018,12,10,07,44,5.20
2018,12,10,07,45,5.20
2018,12,10,07,46,5.20
2018,12,10,07,47,5.20
2018,12,10,07,48,5.20
2018,12,10,07,49,5.20
2018,12,10,07,50,5.10
2018,12,10,07,51,5.10
2018,12,10,07,52,5.10
2018,12,10,07,53,5.10
2018,12,10,07,54,5.10
2018,12,10,07,55,5.00
2018,12,10,07,56,5.00
2018,12,10,07,57,5.00
2018,12,10,07,58,5.00
2018,12,10,07,59,5.00
2018,12,10,08,00,5.00
2018,12,10,08,01,5.00
2018,12,10,08,02,5.00
2018,12,10,08,03,5.00
2018,12,10,08,04,5.00
2018,12,10,08,05,5.00
2018,12,10,08,06,5.00
2018,12,10,08,07,5.00
2018,12,10,08,08,5.00
2018,12,10,08,09,5.00
2018,12,10,08,10,5.00
2018,12,10,08,11,5.00
2018,12,10,08,12,5.00
2018,12,10,08,13,5.00
2018,12,10,08,14,5.00
2018,12,10,08,15,4.90
2018,12,10,08,16,4.90
2018,12,10,08,17,4.90
2018,12,10,08,18,4.90
2018,12,10,08,19,4.90
2018,12,10,08,20,4.90
2018,12,10,08,21,4.90
2018,12,10,08,22,4.90
2018,12,10,08,23,4.90
2018,12,10,08,24,4.90
2018,12,10,08,25,4.90
2018,12,10,08,26,4.90
2018,12,10,08,27,4.90
2018,12,10,08,28,4.90
2018,12,10,08,29,4.90
2018,12,10,08,30,4.90
2018,12,10,08,31,4.90
2018,12,10,08,32,4.90
2018,12,10,08,33,4.80
2018,12,10,08,34,4.80
2018,12,10,08,35,4.80
2018,12,10,08,36,4.80
2018,12,10,08,37,4.80
2018,12,10,08,38,4.80
2018,12,10,08,39,4.80
2018,12,10,08,40,4.80
2018,12,10,08,41,4.80
2018,12,10,08,42,4.80
2018,12,10,08,43,4.80
2018,12,10,08,44,4.80
2018,12,10,08,45,4.80
2018,12,10,08,46,4.80
2018,12,10,08,47,4.80
2018,12,10,08,48,4.80
2018,12,10,08,49,4.80
2018,12,10,08,50,4.80
2018,12,10,08,51,4.80
2018,12,10,08,52,4.80
2018,12,10,08,53,4.80
2018,12,10,08,54,4.80
2018,12,10,08,55,4.80
2018,12,10,08,56,4.80
2018,12,10,08,57,4.90
2018,12,10,08,58,4.90
2018,12,10,08,59,5.00
2018,12,10,09,00,5.00
2018,12,10,09,01,5.00
2018,12,10,09,02,5.00
2018,12,10,09,03,5.10
2018,12,10,09,04,5.10
2018,12,10,09,05,5.10
2018,12,10,09,06,5.10
2018,12,10,09,07,5.10
2018,12,10,09,08,5.10
2018,12,10,09,09,5.20
2018,12,10,09,10,5.20
2018,12,10,09,11,5.20
2018,12,10,09,12,5.20
2018,12,10,09,13,5.20
2018,12,10,09,14,5.20
2018,12,10,09,15,5.30
2018,12,10,09,16,5.30
2018,12,10,09,17,5.30
2018,12,10,09,18,5.40
2018,12,10,09,19,5.40
2018,12,10,09,20,5.40
2018,12,10,09,21,5.50
2018,12,10,09,22,5.50
2018,12,10,09,23,5.50
2018,12,10,09,24,5.60
2018,12,10,09,25,5.60
2018,12,10,09,26,5.60
2018,12,10,09,27,5.60
2018,12,10,09,28,5.70
2018,12,10,09,29,5.70
2018,12,10,09,30,5.70
2018,12,10,09,31,5.70
2018,12,10,09,32,5.70
2018,12,10,09,33,5.70
2018,12,10,09,34,5.70
2018,12,10,09,35,5.80
2018,12,10,09,36,5.80
2018,12,10,09,37,5.80
2018,12,10,09,38,5.80
2018,12,10,09,39,5.80
2018,12,10,09,40,5.80
2018,12,10,09,41,5.80
2018,12,10,09,42,5.80
2018,12,10,09,43,5.80
2018,12,10,09,44,5.80
2018,12,10,09,45,5.80
2018,12,10,09,46,5.80
2018,12,10,09,47,5.80
2018,12,10,09,48,5.80
2018,12,10,09,49,5.90
2018,12,10,09,50,5.90
2018,12,10,09,51,5.90
2018,12,10,09,52,5.90
2018,12,10,09,53,5.90
2018,12,10,09,54,6.00
2018,12,10,09,55,6.00
2018,12,10,09,56,6.00
2018,12,10,09,57,6.10
2018,12,10,09,58,6.10
2018,12,10,11,00,7.00
2018,12,10,11,01,7.00
2018,12,10,11,02,7.00
2018,12,10,11,03,7.00
2018,12,10,11,04,7.00
2018,12,10,11,05,7.10
2018,12,10,11,06,7.10
2018,12,10,11,07,7.10
2018,12,10,11,08,7.10
2018,12,10,11,09,7.10
2018,12,10,11,10,7.10
2018,12,10,11,11,7.10
2018,12,10,11,12,7.10
2018,12,10,11,13,7.10
2018,12,10,11,14,7.10
2018,12,10,11,15,7.10
2018,12,10,11,16,7.20
2018,12,10,11,17,7.20
2018,12,10,11,18,7.20
2018,12,10,11,19,7.20
2018,12,10,11,20,7.20
2018,12,10,11,21,7.20
2018,12,10,11,22,7.20
2018,12,10,11,23,7.30
2018,12,10,11,24,7.30
2018,12,10,11,25,7.30
2018,12,10,11,26,7.30
2018,12,10,11,27,7.30
2018,12,10,11,28,7.40
2018,12,10,11,29,7.40
2018,12,10,11,30,7.40
2018,12,10,11,31,7.40
2018,12,10,11,32,7.50
2018,12,10,11,33,7.50
2018,12,10,11,34,7.50
2018,12,10,11,35,7.50
2018,12,10,11,36,7.50
2018,12,10,11,37,7.50
2018,12,10,11,38,7.50
2018,12,10,11,39,7.60
2018,12,10,11,40,7.60
2018,12,10,11,41,7.60
2018,12,10,11,42,7.60
2018,12,10,11,43,7.60
2018,12,10,11,44,7.60
2018,12,10,11,45,7.60
2018,12,10,11,46,7.60
2018,12,10,11,47,7.60
2018,12,10,11,48,7.60
2018,12,10,11,49,7.70
2018,12,10,11,50,7.70
2018,12,10,11,51,7.70
2018,12,10,11,52,7.80
2018,12,10,11,53,7.80
2018,12,10,11,54,7.90
2018,12,10,11,55,7.90
2018,12,10,11,56,8.00
2018,12,10,11,57,8.10
2018,12,10,11,58,8.10
2018,12,10,11,59,8.20
2018,12,10,12,00,8.20
2018,12,10,12,01,8.30
2018,12,10,12,02,8.30
2018,12,10,12,03,8.30
2018,12,10,12,04,8.30
2018,12,10,12,05,8.30
2018,12,10,12,06,8.30
2018,12,10,12,07,8.30
2018,12,10,12,08,8.30
2018,12,10,12,09,8.40
2018,12,10,12,10,8.40
2018,12,10,12,11,8.40
2018,12,10,12,12,8.40
2018,12,10,12,13,8.50
2018,12,10,12,14,8.60
2018,12,10,12,15,8.60
2018,12,10,12,16,8.60
2018,12,10,12,17,8.60
2018,12,10,12,18,8.70
2018,12,10,12,19,8.70
2018,12,10,12,20,8.70
2018,12,10,12,21,8.70
2018,12,10,12,22,8.80
2018,12,10,12,23,8.80
2018,12,10,12,24,8.80
2018,12,10,12,25,8.80
2018,12,10,12,26,8.80
2018,12,10,12,27,8.80
2018,12,10,12,28,8.80
2018,12,10,12,29,8.80
2018,12,10,12,30,8.90
2018,12,10,12,31,8.90
2018,12,10,12,32,8.90
2018,12,10,12,33,9.00
2018,12,10,12,34,9.10
2018,12,10,12,35,9.20
2018,12,10,12,36,9.20
2018,12,10,12,37,9.30
2018,12,10,12,38,9.30
2018,12,10,12,39,9.30
2018,12,10,12,40,9.40
2018,12,10,12,41,9.50
2018,12,10,12,42,9.50
2018,12,10,12,43,9.60
2018,12,10,12,44,9.60
2018,12,10,12,45,9.60
2018,12,10,12,46,9.70
2018,12,10,12,47,9.60
2018,12,10,12,48,9.60
2018,12,10,12,49,9.70
2018,12,10,12,50,9.70
2018,12,10,12,51,9.80
2018,12,10,12,52,9.90
2018,12,10,12,53,9.90
2018,12,10,12,54,10.00
2018,12,10,12,55,10.00
2018,12,10,12,56,10.00
2018,12,10,12,57,10.10
2018,12,10,12,58,10.00
2018,12,10,12,59,9.90
2018,12,10,13,00,9.90
2018,12,10,13,01,10.00
2018,12,10,13,02,10.00
2018,12,10,13,03,10.10
2018,12,10,13,04,10.10
2018,12,10,13,05,10.10
2018,12,10,13,06,10.10
2018,12,10,13,07,10.10
2018,12,10,13,08,10.10
2018,12,10,13,09,10.20
2018,12,10,13,10,10.10
2018,12,10,13,11,10.10
2018,12,10,13,12,10.10
2018,12,10,13,13,10.10
2018,12,10,13,14,10.00
2018,12,10,13,15,10.00
2018,12,10,13,16,10.10
2018,12,10,13,17,10.10
2018,12,10,13,18,10.10
2018,12,10,13,19,10.20
2018,12,10,13,20,10.20
2018,12,10,13,21,10.20
2018,12,10,13,22,10.20
2018,12,10,13,23,10.20
2018,12,10,13,24,10.20
2018,12,10,13,25,10.20
2018,12,10,13,26,10.20
2018,12,10,13,27,10.20
2018,12,10,13,28,10.20
2018,12,10,13,29,10.20
2018,12,10,13,30,10.20
2018,12,10,13,31,10.20
2018,12,10,13,32,10.30
2018,12,10,13,33,10.20
2018,12,10,13,34,10.30
2018,12,10,13,35,10.30
2018,12,10,13,36,10.30
2018,12,10,13,37,10.30
2018,12,10,13,38,10.30
2018,12,10,13,39,10.20
2018,12,10,13,40,10.20
2018,12,10,13,41,10.20
2018,12,10,13,42,10.10
2018,12,10,13,43,10.10
2018,12,10,13,44,10.00
2018,12,10,13,45,10.00
2018,12,10,13,46,10.00
2018,12,10,13,47,10.00
2018,12,10,13,48,9.90
2018,12,10,13,49,9.90
2018,12,10,13,50,9.90
2018,12,10,13,51,9.90
2018,12,10,13,52,9.90
2018,12,10,13,53,9.90
2018,12,10,13,54,9.90
2018,12,10,13,55,9.90
2018,12,10,13,56,9.80
2018,12,10,13,57,9.80
2018,12,10,13,58,9.80
2018,12,10,13,59,9.80
2018,12,10,14,00,9.80
2018,12,10,14,01,9.80
2018,12,10,14,02,9.70
2018,12,10,14,03,9.70
2018,12,10,14,04,9.70
2018,12,10,14,05,9.70
2018,12,10,14,06,9.70
2018,12,10,14,07,9.70
2018,12,10,14,08,9.70
2018,12,10,14,09,9.60
2018,12,10,14,10,9.60
2018,12,10,14,11,9.60
2018,12,10,14,12,9.60
2018,12,10,14,13,9.60
2018,12,10,14,14,9.60
2018,12,10,14,15,9.60
2018,12,10,14,16,9.60
2018,12,10,14,17,9.60
2018,12,10,14,18,9.60
2018,12,10,14,19,9.60
2018,12,10,14,20,9.60
2018,12,10,14,21,9.60
2018,12,10,14,22,9.50
2018,12,10,14,23,9.40
2018,12,10,14,24,9.40
2018,12,10,14,25,9.40
2018,12,10,14,26,9.40
2018,12,10,14,27,9.30
2018,12,10,14,28,9.30
2018,12,10,14,29,9.30
2018,12,10,14,30,9.30
2018,12,10,14,31,9.30
2018,12,10,14,32,9.30
2018,12,10,14,33,9.30
2018,12,10,14,34,9.20
2018,12,10,14,35,9.20
2018,12,10,14,36,9.20
2018,12,10,14,37,9.20
2018,12,10,14,38,9.20
2018,12,10,14,39,9.10
2018,12,10,14,40,9.10
2018,12,10,14,41,9.10
2018,12,10,14,42,9.00
2018,12,10,14,43,9.00
2018,12,10,14,44,9.00
2018,12,10,14,45,8.90
2018,12,10,14,46,8.90
2018,12,10,14,47,8.80
2018,12,10,14,48,8.80
2018,12,10,14,49,8.80
2018,12,10,14,50,8.80
2018,12,10,14,51,8.80
2018,12,10,14,52,8.80
2018,12,10,14,53,8.80
2018,12,10,14,54,8.80
2018,12,10,14,55,8.70
2018,12,10,14,56,8.70
2018,12,10,14,57,8.70
2018,12,10,14,58,8.70
2018,12,10,14,59,8.70
2018,12,10,15,00,8.70
2018,12,10,15,01,8.70
2018,12,10,15,02,8.80
2018,12,10,15,03,8.80
2018,12,10,15,04,8.80
2018,12,10,15,05,8.80
2018,12,10,15,06,8.70
2018,12,10,15,07,8.70
2018,12,10,15,08,8.70
2018,12,10,15,09,8.70
2018,12,10,15,10,8.70
2018,12,10,15,11,8.70
2018,12,10,15,12,8.60
2018,12,10,15,13,8.60
2018,12,10,15,14,8.60
2018,12,10,15,15,8.60
2018,12,10,15,16,8.60
2018,12,10,15,17,8.60
2018,12,10,15,18,8.60
2018,12,10,15,19,8.60
2018,12,10,15,20,8.60
2018,12,10,15,21,8.60
2018,12,10,15,22,8.60
2018,12,10,15,23,8.60
2018,12,10,15,24,8.50
2018,12,10,15,25,8.50
2018,12,10,15,26,8.50
2018,12,10,15,27,8.50
2018,12,10,15,28,8.40
2018,12,10,15,29,8.40
2018,12,10,15,30,8.40
2018,12,10,15,31,8.30
2018,12,10,15,32,8.30
2018,12,10,15,33,8.30
2018,12,10,15,34,8.30
2018,12,10,15,35,8.30
2018,12,10,15,36,8.30
2018,12,10,15,37,8.30
2018,12,10,15,38,8.30
2018,12,10,15,39,8.20
2018,12,10,15,40,8.20
2018,12,10,15,41,8.20
2018,12,10,15,42,8.20
2018,12,10,15,43,8.10
2018,12,10,15,44,8.10
2018,12,10,15,45,8.10
2018,12,10,15,46,8.00
2018,12,10,15,47,8.00
2018,12,10,15,48,8.00
2018,12,10,15,49,7.90
2018,12,10,15,50,7.90
2018,12,10,15,51,7.90
2018,12,10,15,52,7.90
2018,12,10,15,53,7.80
2018,12,10,15,54,7.80
2018,12,10,15,55,7.80
2018,12,10,15,56,7.80
2018,12,10,15,57,7.80
2018,12,10,15,58,7.80
2018,12,10,15,59,7.80
2018,12,10,16,00,7.70
2018,12,10,16,01,7.70
2018,12,10,16,02,7.70
2018,12,10,16,03,7.70
2018,12,10,16,04,7.70
2018,12,10,16,05,7.70
2018,12,10,16,06,7.70
2018,12,10,16,07,7.70
2018,12,10,16,08,7.70
2018,12,10,16,09,7.60
2018,12,10,16,10,7.60
2018,12,10,16,11,7.60
2018,12,10,16,12,7.60
2018,12,10,16,13,7.60
2018,12,10,16,14,7.60
2018,12,10,16,15,7.60
2018,12,10,16,16,7.50
2018,12,10,16,17,7.50
2018,12,10,16,18,7.50
2018,12,10,16,19,7.50
2018,12,10,16,20,7.50
2018,12,10,16,21,7.50
2018,12,10,16,22,7.40
2018,12,10,16,23,7.40
2018,12,10,16,24,7.40
2018,12,10,16,25,7.40
2018,12,10,16,26,7.40
2018,12,10,16,27,7.40
2018,12,10,16,28,7.40
2018,12,10,16,29,7.40
2018,12,10,16,30,7.40
2018,12,10,16,31,7.40
2018,12,10,16,32,7.40
2018,12,10,16,33,7.40
2018,12,10,16,34,7.40
2018,12,10,16,35,7.30
2018,12,10,16,36,7.30
2018,12,10,16,37,7.30
2018,12,10,16,38,7.30
2018,12,10,16,39,7.30
2018,12,10,16,40,7.30
2018,12,10,16,41,7.30
2018,12,10,16,42,7.30
2018,12,10,16,43,7.30
2018,12,10,16,44,7.20
2018,12,10,16,45,7.20
2018,12,10,16,46,7.20
2018,12,10,16,47,7.20
2018,12,10,16,48,7.20
2018,12,10,16,49,7.20
2018,12,10,16,50,7.20
2018,12,10,16,51,7.20
2018,12,10,16,52,7.20
2018,12,10,16,53,7.20
2018,12,10,16,54,7.20
2018,12,10,16,55,7.20
2018,12,10,16,56,7.20
2018,12,10,16,57,7.20
2018,12,10,16,58,7.20
2018,12,10,16,59,7.20
2018,12,10,17,00,7.20
2018,12,10,17,01,7.20
2018,12,10,17,02,7.20
2018,12,10,17,03,7.20
2018,12,10,17,04,7.20
2018,12,10,17,05,7.20
2018,12,10,17,06,7.20
2018,12,10,17,07,7.20
2018,12,10,17,08,7.20
2018,12,10,17,09,7.20
2018,12,10,17,10,7.20
2018,12,10,17,11,7.20
2018,12,10,17,12,7.20
2018,12,10,17,13,7.20
2018,12,10,17,14,7.20
2018,12,10,17,15,7.20
2018,12,10,17,16,7.20
2018,12,10,17,17,7.20
2018,12,10,17,18,7.20
2018,12,10,17,19,7.20
2018,12,10,17,20,7.20
2018,12,10,17,21,7.10
2018,12,10,17,22,7.10
2018,12,10,17,23,7.10
2018,12,10,17,24,7.10
2018,12,10,17,25,7.10
2018,12,10,17,26,7.10
2018,12,10,17,27,7.10
2018,12,10,17,28,7.10
2018,12,10,17,29,7.10
2018,12,10,17,30,7.00
2018,12,10,17,31,7.00
2018,12,10,17,32,7.00
2018,12,10,17,33,7.00
2018,12,10,17,34,6.90
2018,12,10,17,35,6.90
2018,12,10,17,36,6.90
2018,12,10,17,37,6.90
2018,12,10,17,38,6.90
2018,12,10,17,39,6.90
2018,12,10,17,40,6.90
2018,12,10,17,41,6.80
2018,12,10,17,42,6.80
2018,12,10,17,43,6.80
2018,12,10,17,44,6.80
2018,12,10,17,45,6.80
2018,12,10,17,46,6.80
2018,12,10,17,47,6.70
2018,12,10,17,48,6.70
2018,12,10,17,49,6.70
2018,12,10,17,50,6.70
2018,12,10,17,51,6.60
2018,12,10,17,52,6.60
2018,12,10,17,53,6.60
2018,12,10,17,54,6.60
2018,12,10,17,55,6.50
2018,12,10,17,56,6.50
2018,12,10,17,57,6.50
2018,12,10,17,58,6.40
2018,12,10,17,59,6.40
2018,12,10,18,00,6.40
2018,12,10,18,01,6.40
2018,12,10,18,02,6.40
2018,12,10,18,03,6.30
2018,12,10,18,04,6.30
2018,12,10,18,05,6.30
2018,12,10,18,06,6.30
2018,12,10,18,07,6.30
2018,12,10,18,08,6.30
2018,12,10,18,09,6.20
2018,12,10,18,10,6.20
2018,12,10,18,11,6.20
2018,12,10,18,12,6.20
2018,12,10,18,13,6.20
2018,12,10,18,14,6.20
2018,12,10,18,15,6.20
2018,12,10,18,16,6.20
2018,12,10,18,17,6.20
2018,12,10,18,18,6.20
2018,12,10,18,19,6.20
2018,12,10,18,20,6.20
2018,12,10,18,21,6.10
2018,12,10,18,22,6.10
2018,12,10,18,23,6.10
2018,12,10,18,24,6.10
2018,12,10,18,25,6.10
2018,12,10,18,26,6.10
2018,12,10,18,27,6.10
2018,12,10,18,28,6.10
2018,12,10,18,29,6.10
2018,12,10,18,30,6.10
2018,12,10,18,31,6.10
2018,12,10,18,32,6.10
2018,12,10,18,33,6.10
2018,12,10,18,34,6.10
2018,12,10,18,35,6.10
2018,12,10,18,36,6.10
2018,12,10,18,37,6.10
2018,12,10,18,38,6.10
2018,12,10,18,39,6.10
2018,12,10,18,40,6.10
2018,12,10,18,41,6.10
2018,12,10,18,42,6.00
2018,12,10,18,43,6.00
2018,12,10,18,44,6.00
2018,12,10,18,45,6.00
2018,12,10,18,46,6.00
2018,12,10,18,47,6.00
2018,12,10,18,48,6.00
2018,12,10,18,49,6.00
2018,12,10,18,50,5.90
2018,12,10,18,51,6.00
2018,12,10,18,52,5.90
2018,12,10,18,53,6.00
2018,12,10,18,54,6.00
2018,12,10,18,55,5.90
2018,12,10,18,56,6.00
2018,12,10,18,57,6.00
2018,12,10,18,58,6.00
2018,12,10,18,59,6.00
2018,12,10,19,00,6.00
2018,12,10,19,01,6.00
2018,12,10,19,02,6.00
2018,12,10,19,03,6.00
2018,12,10,19,04,6.00
2018,12,10,19,05,6.00